When you browse on this site, cookies collect data to enhance your experience and personalize the content and advertising you see.
Visit our Privacy Policy to learn more. By continuing to use the site, you agree to this use of cookies and data.
  • En España
  • Lista de países
  • Para 7 días
  • Temperatura del agua
  • Mapa Satelital
  • El tiempo en el mapa
  • Informadores
  • user-avatar
    Iniciar sesión

    Tiempo cada hora Kipungo

    Hoy, 10 Diciembre, Lunes

    Tiempo Temperatura Precipitaciones Viento Presión Humedad
    00:00 +19°C° 0 mm 2 mps 653 mmHg 72%
    01:00 +19°C° 0 mm 2 mps 653 mmHg 78%
    02:00 +18°C° 0 mm 2 mps 653 mmHg 79%
    03:00 +19°C° 0 mm 1 mps 653 mmHg 81%
    04:00 +18°C° 0 mm 1 mps 653 mmHg 83%
    05:00 +19°C° 0 mm 1 mps 654 mmHg 76%
    06:00 +20°C° 0 mm 1 mps 654 mmHg 69%
    07:00 +22°C° 0 mm 1 mps 655 mmHg 59%
    08:00 +26°C° 0 mm 1 mps 656 mmHg 48%
    09:00 +29°C° 0 mm 1 mps 657 mmHg 37%
    10:00 +32°C° 0 mm 1 mps 658 mmHg 26%
    11:00 +34°C° 0 mm 1 mps 657 mmHg 23%
    12:00 +35°C° 0 mm 1 mps 657 mmHg 21%
    13:00 +37°C° 0 mm 1 mps 657 mmHg 18%
    14:00 +37°C° 0 mm 2 mps 656 mmHg 19%
    15:00 +36°C° 0 mm 2 mps 655 mmHg 19%
    16:00 +35°C° 0 mm 2 mps 654 mmHg 20%
    17:00 +33°C° 0 mm 3 mps 654 mmHg 26%
    18:00 +30°C° 0 mm 3 mps 654 mmHg 33%
    19:00 +27°C° 0 mm 4 mps 654 mmHg 39%
    20:00 +26°C° 0 mm 3 mps 654 mmHg 47%
    21:00 +24°C° 0 mm 3 mps 655 mmHg 54%
    22:00 +22°C° 0 mm 3 mps 655 mmHg 62%
    23:00 +21°C° 0 mm 3 mps 655 mmHg 66%

    Mañana, 11 Diciembre, Martes

    Tiempo Temperatura Precipitaciones Viento Presión Humedad
    00:00 +20°C° 0 mm 3 mps 655 mmHg 69%
    01:00 +20°C° 0 mm 3 mps 655 mmHg 73%
    02:00 +19°C° 0 mm 2 mps 654 mmHg 73%
    03:00 +18°C° 0 mm 2 mps 654 mmHg 74%
    04:00 +18°C° 0 mm 2 mps 654 mmHg 75%
    05:00 +19°C° 0 mm 2 mps 654 mmHg 68%
    06:00 +20°C° 0 mm 2 mps 655 mmHg 61%
    07:00 +21°C° 0 mm 2 mps 655 mmHg 55%
    08:00 +26°C° 0 mm 2 mps 656 mmHg 45%
    09:00 +30°C° 0 mm 2 mps 657 mmHg 35%
    10:00 +33°C° 0 mm 1 mps 658 mmHg 25%
    11:00 +35°C° 0 mm 1 mps 658 mmHg 22%
    12:00 +37°C° 0 mm 1 mps 657 mmHg 19%
    13:00 +39°C° 0 mm 1 mps 657 mmHg 16%
    14:00 +37°C° 0 mm 1 mps 656 mmHg 16%
    15:00 +37°C° 0 mm 2 mps 655 mmHg 17%
    16:00 +36°C° 0 mm 2 mps 654 mmHg 18%
    17:00 +33°C° 0 mm 3 mps 654 mmHg 24%
    18:00 +30°C° 0 mm 4 mps 654 mmHg 30%
    19:00 +28°C° 0 mm 4 mps 654 mmHg 36%
    20:00 +26°C° 0 mm 4 mps 655 mmHg 45%
    21:00 +24°C° 0 mm 3 mps 655 mmHg 53%
    22:00 +21°C° 0 mm 3 mps 655 mmHg 62%
    23:00 +20°C° 0 mm 3 mps 655 mmHg 67%

    Pasado mañana, 12 Diciembre, Miércoles

    Tiempo Temperatura Precipitaciones Viento Presión Humedad
    00:00 +20°C° 0 mm 2 mps 654 mmHg 71%
    01:00 +19°C° 0 mm 2 mps 654 mmHg 75%
    02:00 +18°C° 0 mm 2 mps 653 mmHg 77%
    03:00 +18°C° 0 mm 1 mps 653 mmHg 79%
    04:00 +18°C° 0 mm 1 mps 653 mmHg 82%
    05:00 +19°C° 0 mm 1 mps 654 mmHg 75%
    06:00 +21°C° 0 mm 1 mps 654 mmHg 68%
    07:00 +20°C° 0 mm 0 mps 655 mmHg 61%
    08:00 +26°C° 0 mm 1 mps 656 mmHg 48%
    09:00 +29°C° 0 mm 1 mps 657 mmHg 35%
    10:00 +33°C° 0 mm 1 mps 658 mmHg 22%
    11:00 +35°C° 0 mm 1 mps 657 mmHg 19%
    12:00 +36°C° 0 mm 1 mps 657 mmHg 16%
    13:00 +39°C° 0 mm 2 mps 656 mmHg 12%
    14:00 +39°C° 0 mm 2 mps 656 mmHg 12%
    15:00 +38°C° 0 mm 2 mps 655 mmHg 11%
    16:00 +37°C° 0 mm 1 mps 654 mmHg 11%
    17:00 +35°C° 0 mm 2 mps 654 mmHg 14%
    18:00 +31°C° 0 mm 2 mps 654 mmHg 18%
    19:00 +29°C° 0 mm 3 mps 654 mmHg 22%
    20:00 +27°C° 0 mm 3 mps 654 mmHg 31%
    21:00 +25°C° 0 mm 3 mps 654 mmHg 41%
    22:00 +22°C° 0 mm 3 mps 655 mmHg 51%
    23:00 +21°C° 0 mm 3 mps 654 mmHg 57%

    13 Diciembre, Jueves

    Tiempo Temperatura Precipitaciones Viento Presión Humedad
    00:00 +20°C° 0 mm 3 mps 654 mmHg 62%
    01:00 +19°C° 0 mm 3 mps 653 mmHg 68%
    02:00 +19°C° 0 mm 2 mps 653 mmHg 71%
    03:00 +19°C° 0 mm 1 mps 653 mmHg 74%
    04:00 +18°C° 0 mm 1 mps 653 mmHg 77%
    05:00 +20°C° 0 mm 1 mps 654 mmHg 69%
    06:00 +21°C° 0 mm 1 mps 654 mmHg 62%
    07:00 +23°C° 0 mm 1 mps 655 mmHg 54%
    08:00 +26°C° 0 mm 1 mps 656 mmHg 42%
    09:00 +30°C° 0 mm 2 mps 657 mmHg 29%
    10:00 +34°C° 0 mm 2 mps 657 mmHg 17%
    11:00 +34°C° 0 mm 2 mps 657 mmHg 18%
    12:00 +35°C° 0 mm 2 mps 656 mmHg 19%
    13:00 +35°C° 0 mm 3 mps 655 mmHg 19%
    14:00 +35°C° 0 mm 2 mps 655 mmHg 19%
    15:00 +36°C° 0 mm 2 mps 654 mmHg 19%
    16:00 +35°C° 0 mm 1 mps 654 mmHg 19%
    17:00 +34°C° 0 mm 2 mps 654 mmHg 22%
    18:00 +31°C° 0 mm 2 mps 654 mmHg 24%
    19:00 +29°C° 0 mm 2 mps 654 mmHg 26%
    20:00 +27°C° 0 mm 2 mps 654 mmHg 32%
    21:00 +25°C° 0 mm 2 mps 654 mmHg 37%
    22:00 +24°C° 0 mm 2 mps 655 mmHg 42%
    23:00 +23°C° 0 mm 2 mps 654 mmHg 44%

    14 Diciembre, Viernes

    Tiempo Temperatura Precipitaciones Viento Presión Humedad
    00:00 +22°C° 0 mm 3 mps 654 mmHg 46%
    01:00 +21°C° 0 mm 3 mps 654 mmHg 49%
    02:00 +21°C° 0 mm 3 mps 654 mmHg 49%
    03:00 +20°C° 0 mm 3 mps 653 mmHg 50%
    04:00 +19°C° 0 mm 2 mps 653 mmHg 51%
    05:00 +20°C° 0 mm 2 mps 654 mmHg 51%
    06:00 +20°C° 0 mm 2 mps 654 mmHg 51%
    07:00 +22°C° 0 mm 1 mps 655 mmHg 51%
    08:00 +25°C° 0 mm 2 mps 656 mmHg 42%
    09:00 +28°C° 0 mm 2 mps 656 mmHg 32%
    10:00 +31°C° 0 mm 2 mps 657 mmHg 23%
    11:00 +34°C° 0 mm 2 mps 656 mmHg 20%
    12:00 +36°C° 0 mm 3 mps 656 mmHg 18%
    13:00 +39°C° 0 mm 3 mps 655 mmHg 16%
    14:00 +38°C° 0 mm 3 mps 655 mmHg 16%
    15:00 +37°C° 0 mm 2 mps 654 mmHg 17%
    16:00 +36°C° 0 mm 2 mps 653 mmHg 18%
    17:00 +34°C° 0 mm 2 mps 653 mmHg 21%
    18:00 +30°C° 0 mm 3 mps 653 mmHg 24%
    19:00 +28°C° 0 mm 3 mps 654 mmHg 27%
    20:00 +27°C° 0 mm 3 mps 654 mmHg 33%
    21:00 +26°C° 0 mm 3 mps 654 mmHg 38%
    22:00 +25°C° 0 mm 3 mps 654 mmHg 44%
    23:00 +24°C° 0 mm 3 mps 654 mmHg 48%

    15 Diciembre, Sábado

    Tiempo Temperatura Precipitaciones Viento Presión Humedad
    00:00 +23°C° 0 mm 2 mps 653 mmHg 52%
    01:00 +21°C° 0 mm 2 mps 653 mmHg 57%
    02:00 +20°C° 0 mm 2 mps 653 mmHg 59%
    03:00 +19°C° 0 mm 2 mps 653 mmHg 62%
    04:00 +20°C° 0 mm 1 mps 653 mmHg 65%
    05:00 +21°C° 0 mm 1 mps 653 mmHg 60%
    06:00 +22°C° 0 mm 1 mps 654 mmHg 54%
    07:00 +23°C° 0 mm 1 mps 654 mmHg 49%
    08:00 +27°C° 0 mm 1 mps 655 mmHg 39%
    09:00 +31°C° 0 mm 1 mps 656 mmHg 30%
    10:00 +36°C° 0 mm 1 mps 657 mmHg 20%
    11:00 +37°C° 0 mm 1 mps 656 mmHg 18%
    12:00 +39°C° 0 mm 2 mps 656 mmHg 17%
    13:00 +40°C° 0 mm 2 mps 655 mmHg 15%
    14:00 +39°C° 0 mm 2 mps 654 mmHg 16%
    15:00 +38°C° 0 mm 2 mps 654 mmHg 16%
    16:00 +37°C° 0 mm 2 mps 653 mmHg 17%
    17:00 +34°C° 0 mm 2 mps 653 mmHg 22%
    18:00 +31°C° 0 mm 3 mps 653 mmHg 27%
    19:00 +28°C° 0 mm 4 mps 653 mmHg 32%
    20:00 +27°C° 0 mm 3 mps 654 mmHg 38%
    21:00 +25°C° 0 mm 3 mps 654 mmHg 43%
    22:00 +22°C° 0 mm 3 mps 654 mmHg 48%
    23:00 +22°C° 0 mm 3 mps 654 mmHg 50%
    Mostrar más